Lid_Strength_Index
3 3 3 3 3 3 3 3 3 2 2 1 1 1 1 0 1 1 2 1 1 -3 -1 2 1 2 2 3 3 3 10 13 10 9 8 6 7 5 4 6 6 5 5 4 2
3 3 3 3 3 3 3 3 2 2 1 1 1 1 1 0 1 2 -1 -4 -3 -3 2 2 3 2 3 4 4 7 10 9 6 6 7 6 6 6 6 7 7 6 4 3 2
3 3 3 3 3 3 2 2 1 1 1 1 1 1 1 1 3 2 -3 -4 -4 -2 2 1 1 3 4 5 5 6 9 5 5 5 5 6 6 5 7 9 7 7 5 5 5
3 3 3 3 4 3 3 1 1 1 1 1 1 1 1 1 6 1 -3 -4 -4 1 2 2 3 5 5 6 4 7 5 5 5 5 5 6 6 7 7 7 5 4 4 5 6
4 4 4 4 4 4 3 1 1 2 1 1 1 1 1 3 3 -0 -2 -2 1 2 3 3 4 5 6 5 6 8 6 5 5 5 5 5 7 8 7 5 4 4 4 5 5
4 4 4 4 4 3 3 2 2 2 1 1 1 1 2 5 0 -1 0 1 1 2 2 2 4 4 5 6 7 7 5 6 5 5 5 7 7 6 6 4 4 4 4 4 4
3 4 3 3 4 3 3 2 2 2 1 1 0 1 2 3 -0 -1 1 1 0 1 2 2 2 4 5 5 5 6 9 8 6 6 7 6 9 9 6 5 5 5 4 3 3
4 4 3 3 3 2 2 2 2 1 1 0 0 1 4 -0 -1 1 1 1 1 0 1 1 1 3 5 6 6 8 9 13 8 7 6 7 12 8 5 6 6 5 4 4 3
4 4 4 4 3 1 2 2 2 1 0 -0 1 2 4 -1 1 0 0 2 1 1 1 1 2 3 4 8 10 10 13 13 11 7 9 9 11 7 5 6 6 6 5 4 4
4 4 4 4 3 2 2 2 1 1 1 -0 1 3 2 3 1 1 0 1 2 2 3 3 4 5 7 9 13 11 12 10 12 10 9 11 10 8 6 6 6 6 5 5 4
4 4 4 3 2 2 3 1 2 3 2 4 3 4 3 2 1 2 1 2 2 3 5 4 6 7 6 6 6 7 9 11 10 8 9 9 10 9 7 6 7 6 5 5 5
4 4 4 2 2 2 2 2 2 2 4 2 2 2 2 1 3 2 1 3 4 6 5 6 7 5 5 5 7 8 9 11 9 8 9 10 11 9 8 7 6 6 6 5 5
5 5 4 2 2 3 1 1 -0 0 4 4 3 3 3 2 4 4 2 3 5 6 6 7 6 5 5 7 8 10 9 10 11 8 8 9 13 11 9 7 6 6 5 5 5
5 5 3 3 4 0 1 -0 -0 0 6 6 4 3 2 2 4 2 2 3 5 6 6 7 5 6 6 8 8 11 7 7 8 10 14 9 15 13 10 9 8 7 7 6 5
4 4 3 4 2 2 1 -0 -0 1 12 5 4 1 2 4 4 4 2 3 5 7 6 8 7 8 8 7 6 8 6 7 7 11 11 13 14 13 10 11 10 8 6 6 4
3 3 3 2 2 0 -0 0 1 8 13 7 4 5 5 4 4 3 4 3 3 5 5 7 5 6 7 7 6 5 7 7 7 9 15 12 13 16 13 11 9 7 6 5 4
3 3 3 1 2 -1 -0 2 8 12 6 7 6 5 6 6 6 5 6 6 7 9 9 8 8 7 7 10 7 6 8 12 13 14 18 12 15 14 10 8 7 7 6 5 4
3 4 3 2 0 0 1 5 13 8 7 5 5 6 7 6 6 6 6 7 6 6 8 10 13 9 7 8 8 7 8 12 17 16 12 11 17 14 9 7 6 5 5 4 4
5 1 2 -0 -1 -0 3 9 10 9 6 6 6 7 7 6 6 6 7 8 6 6 9 10 10 5 5 5 6 8 9 7 11 10 14 16 13 10 9 8 7 7 6 6 5
1 1 1 -1 -1 1 5 11 8 5 5 5 8 7 9 8 8 8 9 6 7 5 5 7 11 6 6 5 5 7 6 10 10 17 18 17 15 14 10 8 7 7 6 5 4
1 3 1 -1 -0 3 7 8 5 4 4 6 8 7 7 8 7 7 8 7 6 6 5 6 8 8 6 8 9 8 10 9 10 14 16 18 17 9 8 7 6 6 6 5 4
2 5 1 -0 5 5 8 5 7 5 4 5 5 6 7 7 7 7 8 7 5 5 7 6 7 11 10 6 6 7 9 9 13 15 14 14 15 7 6 5 5 5 5 4 3
4 3 0 1 7 7 6 5 5 5 5 5 6 5 5 6 8 7 7 5 4 5 7 6 9 11 11 9 7 9 8 8 9 10 13 16 16 6 6 5 5 5 4 4 4
4 5 3 3 3 6 6 6 6 4 5 4 5 4 5 6 6 7 8 6 5 5 5 5 7 11 14 13 9 11 9 8 9 12 13 11 11 8 6 6 5 5 4 4 4
4 4 3 6 5 5 4 5 6 7 5 4 5 5 6 8 7 7 6 6 5 4 5 6 10 9 9 8 9 9 9 9 10 9 11 10 10 8 6 6 5 4 4 4 4
5 5 3 4 4 6 6 6 6 6 5 6 6 5 5 7 7 8 7 6 7 6 6 5 11 9 11 8 8 10 8 8 8 8 8 8 9 5 5 4 5 5 4 4 4
1 1 3 6 5 5 5 6 6 5 5 4 5 5 6 6 4 4 4 5 5 7 8 8 10 11 15 11 10 13 9 8 8 7 8 10 8 5 6 5 5 5 4 4 4